When you browse on this site, cookies collect data to enhance your experience and personalize the content and advertising you see.
Visit our Privacy Policy to learn more. By continuing to use the site, you agree to this use of cookies and data.
  • Em Portugal
  • Lista de países
  • Para 7 dias
  • Temperatura da água
  • Mapas de satélite
  • Mapa do tempo
  • Widgets de tempo
  • user-avatar
    Iniciar Sessão

    Previsão horária em Dhaka

    Hoje, 11 Dezembro, Terça-feira

    Tempo Temperatura Precipitação Vento Pressão Humidade
    00:00 +22°C° 0 mm 1 m/s 758 mmHg 47%
    01:00 +21°C° 0 mm 1 m/s 758 mmHg 48%
    02:00 +21°C° 0 mm 1 m/s 758 mmHg 49%
    03:00 +20°C° 0 mm 1 m/s 758 mmHg 50%
    04:00 +20°C° 0 mm 1 m/s 758 mmHg 52%
    05:00 +20°C° 0 mm 1 m/s 758 mmHg 53%
    06:00 +19°C° 0 mm 1 m/s 758 mmHg 57%
    07:00 +21°C° 0 mm 1 m/s 759 mmHg 53%
    08:00 +22°C° 0 mm 1 m/s 759 mmHg 48%
    09:00 +24°C° 0 mm 1 m/s 759 mmHg 44%
    10:00 +25°C° 0 mm 1 m/s 759 mmHg 41%
    11:00 +27°C° 0 mm 2 m/s 759 mmHg 37%
    12:00 +30°C° 0 mm 1 m/s 759 mmHg 27%
    13:00 +30°C° 0 mm 1 m/s 758 mmHg 26%
    14:00 +30°C° 0 mm 2 m/s 757 mmHg 25%
    15:00 +31°C° 0 mm 2 m/s 757 mmHg 24%
    16:00 +29°C° 0 mm 2 m/s 757 mmHg 28%
    17:00 +27°C° 0 mm 2 m/s 757 mmHg 31%
    18:00 +25°C° 0 mm 2 m/s 757 mmHg 34%
    19:00 +25°C° 0 mm 2 m/s 758 mmHg 36%
    20:00 +24°C° 0 mm 2 m/s 758 mmHg 38%
    21:00 +24°C° 0 mm 1 m/s 758 mmHg 39%
    22:00 +23°C° 0 mm 1 m/s 759 mmHg 41%
    23:00 +23°C° 0 mm 1 m/s 759 mmHg 42%

    Amanhã, 12 Dezembro, Quarta-feira

    Tempo Temperatura Precipitação Vento Pressão Humidade
    00:00 +23°C° 0 mm 1 m/s 759 mmHg 43%
    01:00 +22°C° 0 mm 1 m/s 759 mmHg 45%
    02:00 +22°C° 0 mm 1 m/s 759 mmHg 47%
    03:00 +21°C° 0 mm 1 m/s 758 mmHg 49%
    04:00 +21°C° 0 mm 1 m/s 759 mmHg 51%
    05:00 +21°C° 0 mm 1 m/s 759 mmHg 53%
    06:00 +20°C° 0 mm 1 m/s 759 mmHg 55%
    07:00 +22°C° 0 mm 1 m/s 760 mmHg 52%
    08:00 +23°C° 0 mm 2 m/s 760 mmHg 49%
    09:00 +25°C° 0 mm 2 m/s 761 mmHg 47%
    10:00 +26°C° 0 mm 2 m/s 761 mmHg 43%
    11:00 +28°C° 0 mm 2 m/s 761 mmHg 39%
    12:00 +29°C° 0 mm 2 m/s 760 mmHg 35%
    13:00 +30°C° 0 mm 2 m/s 760 mmHg 34%
    14:00 +30°C° 0 mm 2 m/s 759 mmHg 33%
    15:00 +30°C° 0 mm 2 m/s 758 mmHg 32%
    16:00 +29°C° 0 mm 2 m/s 758 mmHg 36%
    17:00 +27°C° 0 mm 2 m/s 758 mmHg 39%
    18:00 +26°C° 0 mm 2 m/s 758 mmHg 43%
    19:00 +25°C° 0 mm 2 m/s 759 mmHg 44%
    20:00 +25°C° 0 mm 2 m/s 759 mmHg 46%
    21:00 +24°C° 0 mm 2 m/s 760 mmHg 47%
    22:00 +24°C° 0 mm 2 m/s 760 mmHg 47%
    23:00 +23°C° 0 mm 2 m/s 760 mmHg 48%

    Depois de amanhã, 13 Dezembro, Quinta-feira

    Tempo Temperatura Precipitação Vento Pressão Humidade
    00:00 +23°C° 0 mm 1 m/s 760 mmHg 49%
    01:00 +21°C° 0 mm 2 m/s 760 mmHg 50%
    02:00 +21°C° 0 mm 2 m/s 760 mmHg 52%
    03:00 +20°C° 0 mm 2 m/s 760 mmHg 53%
    04:00 +20°C° 0 mm 2 m/s 760 mmHg 54%
    05:00 +19°C° 0 mm 2 m/s 760 mmHg 55%
    06:00 +19°C° 0 mm 2 m/s 760 mmHg 57%
    07:00 +21°C° 0 mm 2 m/s 761 mmHg 52%
    08:00 +23°C° 0 mm 2 m/s 761 mmHg 48%
    09:00 +25°C° 0 mm 2 m/s 762 mmHg 44%
    10:00 +26°C° 0 mm 2 m/s 762 mmHg 40%
    11:00 +28°C° 0 mm 2 m/s 761 mmHg 37%
    12:00 +29°C° 0 mm 2 m/s 761 mmHg 33%
    13:00 +29°C° 0 mm 2 m/s 760 mmHg 31%
    14:00 +30°C° 0 mm 2 m/s 759 mmHg 30%
    15:00 +30°C° 0 mm 2 m/s 758 mmHg 28%
    16:00 +29°C° 0 mm 2 m/s 758 mmHg 31%
    17:00 +27°C° 0 mm 2 m/s 759 mmHg 35%
    18:00 +26°C° 0 mm 2 m/s 759 mmHg 38%
    19:00 +25°C° 0 mm 2 m/s 759 mmHg 40%
    20:00 +24°C° 0 mm 2 m/s 760 mmHg 41%
    21:00 +24°C° 0 mm 2 m/s 761 mmHg 43%
    22:00 +23°C° 0 mm 2 m/s 760 mmHg 44%
    23:00 +23°C° 0 mm 2 m/s 760 mmHg 46%

    14 Dezembro, Sexta-feira

    Tempo Temperatura Precipitação Vento Pressão Humidade
    00:00 +21°C° 0 mm 2 m/s 760 mmHg 48%
    01:00 +21°C° 0 mm 2 m/s 760 mmHg 51%
    02:00 +20°C° 0 mm 2 m/s 760 mmHg 53%
    03:00 +20°C° 0 mm 2 m/s 760 mmHg 56%
    04:00 +19°C° 0 mm 2 m/s 760 mmHg 58%
    05:00 +19°C° 0 mm 2 m/s 760 mmHg 60%
    06:00 +20°C° 0 mm 1 m/s 760 mmHg 61%
    07:00 +20°C° 0 mm 2 m/s 761 mmHg 57%
    08:00 +23°C° 0 mm 2 m/s 762 mmHg 53%
    09:00 +24°C° 0 mm 3 m/s 762 mmHg 49%
    10:00 +26°C° 0 mm 3 m/s 762 mmHg 43%
    11:00 +27°C° 0 mm 3 m/s 762 mmHg 38%
    12:00 +29°C° 0 mm 3 m/s 761 mmHg 33%
    13:00 +29°C° 0 mm 3 m/s 760 mmHg 31%
    14:00 +30°C° 0 mm 3 m/s 760 mmHg 30%
    15:00 +30°C° 0 mm 3 m/s 759 mmHg 28%
    16:00 +28°C° 0 mm 3 m/s 759 mmHg 32%
    17:00 +27°C° 0 mm 3 m/s 759 mmHg 36%
    18:00 +25°C° 0 mm 3 m/s 760 mmHg 40%
    19:00 +25°C° 0 mm 3 m/s 760 mmHg 41%
    20:00 +24°C° 0 mm 3 m/s 761 mmHg 42%
    21:00 +24°C° 0 mm 3 m/s 761 mmHg 43%
    22:00 +24°C° 0 mm 3 m/s 761 mmHg 42%
    23:00 +22°C° 0 mm 3 m/s 761 mmHg 42%

    15 Dezembro, Sábado

    Tempo Temperatura Precipitação Vento Pressão Humidade
    00:00 +22°C° 0 mm 4 m/s 761 mmHg 42%
    01:00 +22°C° 0 mm 3 m/s 761 mmHg 42%
    02:00 +22°C° 0 mm 3 m/s 761 mmHg 42%
    03:00 +21°C° 0 mm 3 m/s 760 mmHg 42%
    04:00 +21°C° 0 mm 3 m/s 761 mmHg 43%
    05:00 +21°C° 0 mm 3 m/s 761 mmHg 43%
    06:00 +21°C° 0 mm 3 m/s 761 mmHg 44%
    07:00 +21°C° 0 mm 3 m/s 761 mmHg 45%
    08:00 +21°C° 0 mm 3 m/s 762 mmHg 45%
    09:00 +21°C° 0 mm 2 m/s 763 mmHg 46%
    10:00 +22°C° 0 mm 3 m/s 762 mmHg 45%
    11:00 +24°C° 0 mm 3 m/s 762 mmHg 44%
    12:00 +24°C° 0 mm 3 m/s 762 mmHg 42%
    13:00 +24°C° 0 mm 2 m/s 761 mmHg 43%
    14:00 +24°C° 0 mm 2 m/s 761 mmHg 44%
    15:00 +25°C° 0 mm 2 m/s 760 mmHg 44%
    16:00 +24°C° 0 mm 2 m/s 761 mmHg 45%
    17:00 +23°C° 0 mm 2 m/s 761 mmHg 46%
    18:00 +23°C° 0 mm 1 m/s 762 mmHg 47%
    19:00 +23°C° 0 mm 1 m/s 762 mmHg 47%
    20:00 +23°C° 0 mm 1 m/s 762 mmHg 47%
    21:00 +23°C° 0 mm 1 m/s 763 mmHg 47%
    22:00 +23°C° 0 mm 1 m/s 762 mmHg 48%
    23:00 +21°C° 0 mm 2 m/s 762 mmHg 48%

    16 Dezembro, Domingo

    Tempo Temperatura Precipitação Vento Pressão Humidade
    00:00 +21°C° 0 mm 2 m/s 762 mmHg 48%
    01:00 +21°C° 0 mm 2 m/s 762 mmHg 48%
    02:00 +21°C° 0 mm 2 m/s 762 mmHg 48%
    03:00 +21°C° 0 mm 2 m/s 762 mmHg 48%
    04:00 +21°C° 0 mm 2 m/s 762 mmHg 48%
    05:00 +22°C° 0 mm 1 m/s 762 mmHg 48%
    06:00 +22°C° 0 mm 1 m/s 762 mmHg 47%
    07:00 +21°C° 0 mm 2 m/s 762 mmHg 48%
    08:00 +21°C° 0 mm 2 m/s 763 mmHg 49%
    09:00 +23°C° 0 mm 2 m/s 763 mmHg 49%
    10:00 +23°C° 0 mm 2 m/s 763 mmHg 48%
    11:00 +24°C° 0 mm 3 m/s 763 mmHg 47%
    12:00 +24°C° 0 mm 3 m/s 762 mmHg 45%
    13:00 +24°C° 0 mm 3 m/s 762 mmHg 46%
    14:00 +24°C° 0 mm 2 m/s 761 mmHg 47%
    15:00 +23°C° 0 mm 2 m/s 761 mmHg 49%
    16:00 +23°C° 0 mm 2 m/s 761 mmHg 49%
    17:00 +23°C° 0 mm 2 m/s 761 mmHg 50%
    18:00 +21°C° 0 mm 3 m/s 761 mmHg 51%
    19:00 +21°C° 0 mm 2 m/s 761 mmHg 50%
    20:00 +21°C° 0 mm 2 m/s 761 mmHg 50%
    21:00 +21°C° 0 mm 2 m/s 762 mmHg 50%
    22:00 +21°C° 0 mm 2 m/s 761 mmHg 50%
    23:00 +20°C° 0 mm 2 m/s 761 mmHg 50%
    Mostrar mais